Time,TemperatureF,DewpointF,PressureIn,WindDirection,WindDirectionDegrees,WindSpeedMPH,WindSpeedGustMPH,Humidity,HourlyPrecipIn,Conditions,Clouds,dailyrainin,SoftwareType,DateUTC
2013-06-18 00:00:00,66.8,59.0,29.93,NE,43,0.0,-999.0,76,-99.99,,,1.00,ADS-WS1 bash script,2013-06-18 04:00:00,
2013-06-18 00:05:00,67.0,59.0,29.93,East,88,1.0,-999.0,76,-99.99,,,1.00,ADS-WS1 bash script,2013-06-18 04:05:00,
2013-06-18 00:10:00,66.8,59.0,29.94,South,191,2.0,-999.0,76,-99.99,,,1.00,ADS-WS1 bash script,2013-06-18 04:10:00,
2013-06-18 00:20:00,67.2,59.0,29.96,NW,309,0.0,-999.0,76,-99.99,,,1.00,ADS-WS1 bash script,2013-06-18 04:20:00,
2013-06-18 00:25:00,67.2,59.0,29.96,WNW,293,3.0,-999.0,77,-99.99,,,1.00,ADS-WS1 bash script,2013-06-18 04:25:00,
2013-06-18 00:30:00,67.0,60.0,29.96,West,268,1.0,-999.0,79,-99.99,,,1.00,ADS-WS1 bash script,2013-06-18 04:30:00,
2013-06-18 00:35:00,66.8,60.0,29.96,SSE,160,0.0,-999.0,80,-99.99,,,1.00,ADS-WS1 bash script,2013-06-18 04:35:00,
2013-06-18 00:40:00,66.8,60.0,29.94,East,86,1.0,-999.0,80,-99.99,,,1.00,ADS-WS1 bash script,2013-06-18 04:40:00,
2013-06-18 00:50:00,66.3,59.0,29.94,NE,43,1.0,-999.0,80,-99.99,,,1.00,ADS-WS1 bash script,2013-06-18 04:50:00,
2013-06-18 01:00:00,65.7,60.0,29.94,North,2,4.0,-999.0,82,-99.99,,,1.00,ADS-WS1 bash script,2013-06-18 05:00:00,
2013-06-18 01:10:00,65.0,60.0,29.95,NNE,16,7.0,-999.0,84,-99.99,,,0.00,ADS-WS1 bash script,2013-06-18 05:10:00,
2013-06-18 01:15:00,64.8,60.0,29.94,ENE,77,2.0,-999.0,84,-99.99,,,0.00,ADS-WS1 bash script,2013-06-18 05:15:00,
2013-06-18 01:20:00,64.8,60.0,29.93,South,179,1.0,-999.0,84,-99.99,,,0.00,ADS-WS1 bash script,2013-06-18 05:20:00,
2013-06-18 01:25:00,64.7,59.0,29.93,East,88,3.0,-999.0,83,-99.99,,,0.00,ADS-WS1 bash script,2013-06-18 05:25:00,
2013-06-18 01:30:00,64.7,59.0,29.93,NNE,21,1.0,-999.0,83,-99.99,,,0.00,ADS-WS1 bash script,2013-06-18 05:30:00,
2013-06-18 01:35:00,64.5,59.0,29.92,NNE,31,5.0,-999.0,84,-99.99,,,0.00,ADS-WS1 bash script,2013-06-18 05:35:00,
2013-06-18 01:40:00,64.3,59.0,29.92,NE,50,1.0,-999.0,85,-99.99,,,0.00,ADS-WS1 bash script,2013-06-18 05:40:00,
2013-06-18 01:45:00,64.3,59.0,29.92,NE,43,1.0,-999.0,85,-99.99,,,0.00,ADS-WS1 bash script,2013-06-18 05:45:00,
2013-06-18 01:50:00,64.1,59.0,29.91,ENE,66,1.0,-999.0,85,-99.99,,,0.00,ADS-WS1 bash script,2013-06-18 05:50:00,
2013-06-18 01:55:00,64.1,59.0,29.91,East,100,1.0,-999.0,86,-99.99,,,0.00,ADS-WS1 bash script,2013-06-18 05:55:00,
2013-06-18 02:05:00,63.8,60.0,29.91,East,80,3.0,-999.0,87,-99.99,,,0.00,ADS-WS1 bash script,2013-06-18 06:05:00,
2013-06-18 02:10:00,63.8,60.0,29.90,North,351,0.0,-999.0,87,-99.99,,,0.00,ADS-WS1 bash script,2013-06-18 06:10:00,
2013-06-18 02:15:00,63.6,60.0,29.91,NE,43,2.0,-999.0,87,-99.99,,,0.00,ADS-WS1 bash script,2013-06-18 06:15:00,
2013-06-18 02:20:00,63.6,60.0,29.91,SSW,203,0.0,-999.0,88,-99.99,,,0.00,ADS-WS1 bash script,2013-06-18 06:20:00,
2013-06-18 02:30:00,63.4,60.0,29.91,East,81,0.0,-999.0,89,-99.99,,,0.00,ADS-WS1 bash script,2013-06-18 06:30:00,
2013-06-18 02:35:00,63.4,60.0,29.91,SW,234,0.0,-999.0,89,-99.99,,,0.00,ADS-WS1 bash script,2013-06-18 06:35:00,
2013-06-18 02:40:00,63.4,60.0,29.91,NW,309,0.0,-999.0,89,-99.99,,,0.00,ADS-WS1 bash script,2013-06-18 06:40:00,
2013-06-18 02:45:00,63.2,60.0,29.91,NE,43,1.0,-999.0,89,-99.99,,,0.00,ADS-WS1 bash script,2013-06-18 06:45:00,
2013-06-18 02:55:00,63.2,60.0,29.92,North,0,1.0,-999.0,89,-99.99,,,0.00,ADS-WS1 bash script,2013-06-18 06:55:00,
2013-06-18 03:00:00,62.9,60.0,29.92,North,0,1.0,-999.0,90,-99.99,,,0.00,ADS-WS1 bash script,2013-06-18 07:00:00,
2013-06-18 03:05:00,62.9,60.0,29.92,NNW,331,0.0,-999.0,90,-99.99,,,0.00,ADS-WS1 bash script,2013-06-18 07:05:00,
2013-06-18 03:10:00,62.9,60.0,29.92,NNW,335,0.0,-999.0,90,-99.99,,,0.00,ADS-WS1 bash script,2013-06-18 07:10:00,
2013-06-18 03:15:00,62.9,60.0,29.93,North,0,0.0,-999.0,90,-99.99,,,0.00,ADS-WS1 bash script,2013-06-18 07:15:00,
2013-06-18 03:20:00,62.7,60.0,29.93,NE,43,0.0,-999.0,90,-99.99,,,0.00,ADS-WS1 bash script,2013-06-18 07:20:00,
2013-06-18 03:25:00,62.5,59.0,29.93,NNE,32,2.0,-999.0,91,-99.99,,,0.00,ADS-WS1 bash script,2013-06-18 07:25:00,
2013-06-18 03:30:00,62.5,60.0,29.93,North,0,0.0,-999.0,92,-99.99,,,0.00,ADS-WS1 bash script,2013-06-18 07:30:00,
2013-06-18 03:35:00,62.3,59.0,29.93,North,0,1.0,-999.0,91,-99.99,,,0.00,ADS-WS1 bash script,2013-06-18 07:35:00,
2013-06-18 03:40:00,62.1,60.0,29.93,NE,43,0.0,-999.0,92,-99.99,,,0.00,ADS-WS1 bash script,2013-06-18 07:40:00,
2013-06-18 03:45:00,62.1,60.0,29.93,NE,43,0.0,-999.0,93,-99.99,,,0.00,ADS-WS1 bash script,2013-06-18 07:45:00,
2013-06-18 03:50:00,62.1,60.0,29.92,NE,43,0.0,-999.0,92,-99.99,,,0.00,ADS-WS1 bash script,2013-06-18 07:50:00,
2013-06-18 03:55:00,61.8,60.0,29.92,NE,50,3.0,-999.0,93,-99.99,,,0.00,ADS-WS1 bash script,2013-06-18 07:55:00,
2013-06-18 04:00:00,61.6,60.0,29.92,ENE,77,1.0,-999.0,92,-99.99,,,0.00,ADS-WS1 bash script,2013-06-18 08:00:00,
2013-06-18 04:05:00,61.6,60.0,29.93,East,88,1.0,-999.0,92,-99.99,,,0.00,ADS-WS1 bash script,2013-06-18 08:05:00,
2013-06-18 04:10:00,61.6,60.0,29.93,NE,43,1.0,-999.0,92,-99.99,,,0.00,ADS-WS1 bash script,2013-06-18 08:10:00,
2013-06-18 04:15:00,61.2,58.0,29.93,NE,55,0.0,-999.0,91,-99.99,,,0.00,ADS-WS1 bash script,2013-06-18 08:15:00,
2013-06-18 04:20:00,61.2,58.0,29.93,SE,134,1.0,-999.0,91,-99.99,,,0.00,ADS-WS1 bash script,2013-06-18 08:20:00,
2013-06-18 04:25:00,61.1,58.0,29.93,ENE,74,1.0,-999.0,91,-99.99,,,0.00,ADS-WS1 bash script,2013-06-18 08:25:00,
2013-06-18 04:30:00,61.2,58.0,29.94,NE,43,0.0,-999.0,91,-99.99,,,0.00,ADS-WS1 bash script,2013-06-18 08:30:00,
2013-06-18 04:35:00,61.1,58.0,29.94,ESE,118,3.0,-999.0,91,-99.99,,,0.00,ADS-WS1 bash script,2013-06-18 08:35:00,
2013-06-18 04:40:00,61.1,58.0,29.94,ENE,66,2.0,-999.0,91,-99.99,,,0.00,ADS-WS1 bash script,2013-06-18 08:40:00,
2013-06-18 04:45:00,60.9,58.0,29.94,ENE,66,1.0,-999.0,91,-99.99,,,0.00,ADS-WS1 bash script,2013-06-18 08:45:00,
2013-06-18 04:50:00,60.7,58.0,29.93,NNE,21,2.0,-999.0,90,-99.99,,,0.00,ADS-WS1 bash script,2013-06-18 08:50:00,
2013-06-18 04:55:00,60.7,58.0,29.94,East,83,1.0,-999.0,90,-99.99,,,0.00,ADS-WS1 bash script,2013-06-18 08:55:00,
2013-06-18 05:05:00,60.7,58.0,29.93,North,0,0.0,-999.0,90,-99.99,,,0.00,ADS-WS1 bash script,2013-06-18 09:05:00,
2013-06-18 05:15:00,60.2,57.0,29.93,East,91,1.0,-999.0,90,-99.99,,,0.00,ADS-WS1 bash script,2013-06-18 09:15:00,
2013-06-18 05:20:00,60.2,57.0,29.93,NNE,14,0.0,-999.0,91,-99.99,,,0.00,ADS-WS1 bash script,2013-06-18 09:20:00,
2013-06-18 05:25:00,59.8,57.0,29.94,WNW,296,0.0,-999.0,91,-99.99,,,0.00,ADS-WS1 bash script,2013-06-18 09:25:00,
2013-06-18 05:30:00,59.6,58.0,29.93,NE,47,3.0,-999.0,92,-99.99,,,0.00,ADS-WS1 bash script,2013-06-18 09:30:00,
2013-06-18 05:35:00,59.6,58.0,29.94,NNE,26,2.0,-999.0,92,-99.99,,,0.00,ADS-WS1 bash script,2013-06-18 09:35:00,
2013-06-18 05:40:00,59.3,57.0,29.94,NE,43,5.0,-999.0,92,-99.99,,,0.00,ADS-WS1 bash script,2013-06-18 09:40:00,
2013-06-18 05:45:00,59.3,57.0,29.94,NE,50,4.0,-999.0,92,-99.99,,,0.00,ADS-WS1 bash script,2013-06-18 09:45:00,
2013-06-18 05:50:00,58.9,57.0,29.94,NNE,16,8.0,-999.0,92,-99.99,,,0.00,ADS-WS1 bash script,2013-06-18 09:50:00,
2013-06-18 05:55:00,58.7,56.0,29.94,NE,55,5.0,-999.0,91,-99.99,,,0.00,ADS-WS1 bash script,2013-06-18 09:55:00,
2013-06-18 06:00:00,58.5,55.0,29.94,NNE,25,12.0,-999.0,90,-99.99,,,0.00,ADS-WS1 bash script,2013-06-18 10:00:00,
2013-06-18 06:05:00,58.5,55.0,29.95,NNE,16,2.0,-999.0,90,-99.99,,,0.00,ADS-WS1 bash script,2013-06-18 10:05:00,
2013-06-18 06:10:00,58.5,55.0,29.95,NE,55,3.0,-999.0,90,-99.99,,,0.00,ADS-WS1 bash script,2013-06-18 10:10:00,
2013-06-18 06:15:00,58.4,55.0,29.94,NNE,31,1.0,-999.0,89,-99.99,,,0.00,ADS-WS1 bash script,2013-06-18 10:15:00,
2013-06-18 06:20:00,58.4,55.0,29.95,NE,39,2.0,-999.0,90,-99.99,,,0.00,ADS-WS1 bash script,2013-06-18 10:20:00,
2013-06-18 06:25:00,58.2,55.0,29.96,NE,36,4.0,-999.0,90,-99.99,,,0.00,ADS-WS1 bash script,2013-06-18 10:25:00,
2013-06-18 06:30:00,58.4,55.0,29.96,North,11,0.0,-999.0,90,-99.99,,,0.00,ADS-WS1 bash script,2013-06-18 10:30:00,
2013-06-18 06:35:00,58.4,55.0,29.96,North,354,3.0,-999.0,90,-99.99,,,0.00,ADS-WS1 bash script,2013-06-18 10:35:00,
2013-06-18 06:40:00,58.4,55.0,29.96,NNW,345,3.0,-999.0,91,-99.99,,,0.00,ADS-WS1 bash script,2013-06-18 10:40:00,
2013-06-18 06:45:00,58.4,55.0,29.96,NNE,26,3.0,-999.0,91,-99.99,,,0.00,ADS-WS1 bash script,2013-06-18 10:45:00,
2013-06-18 06:50:00,58.2,55.0,29.96,NNE,15,4.0,-999.0,91,-99.99,,,0.00,ADS-WS1 bash script,2013-06-18 10:50:00,
2013-06-18 06:55:00,58.4,55.0,29.96,NNE,26,3.0,-999.0,91,-99.99,,,0.00,ADS-WS1 bash script,2013-06-18 10:55:00,
2013-06-18 07:00:00,58.5,55.0,29.96,North,7,4.0,-999.0,90,-99.99,,,0.00,ADS-WS1 bash script,2013-06-18 11:00:00,
2013-06-18 07:05:00,58.5,55.0,29.96,NNE,23,1.0,-999.0,90,-99.99,,,0.00,ADS-WS1 bash script,2013-06-18 11:05:00,
2013-06-18 07:10:00,58.5,55.0,29.96,NNW,335,3.0,-999.0,90,-99.99,,,0.00,ADS-WS1 bash script,2013-06-18 11:10:00,
2013-06-18 07:15:00,58.7,56.0,29.96,NNE,23,6.0,-999.0,89,-99.99,,,0.00,ADS-WS1 bash script,2013-06-18 11:15:00,
2013-06-18 07:20:00,58.9,56.0,29.97,NNE,26,1.0,-999.0,89,-99.99,,,0.00,ADS-WS1 bash script,2013-06-18 11:20:00,
2013-06-18 07:25:00,59.1,55.0,29.97,NNW,333,1.0,-999.0,88,-99.99,,,0.00,ADS-WS1 bash script,2013-06-18 11:25:00,
2013-06-18 07:35:00,59.3,54.0,29.98,NE,40,3.0,-999.0,86,-99.99,,,0.00,ADS-WS1 bash script,2013-06-18 11:35:00,
2013-06-18 07:40:00,59.4,54.0,29.98,ENE,69,1.0,-999.0,85,-99.99,,,0.00,ADS-WS1 bash script,2013-06-18 11:40:00,
2013-06-18 07:50:00,59.6,55.0,29.99,NNE,32,7.0,-999.0,84,-99.99,,,0.00,ADS-WS1 bash script,2013-06-18 11:50:00,
2013-06-18 07:55:00,60.0,55.0,29.98,North,9,1.0,-999.0,84,-99.99,,,0.00,ADS-WS1 bash script,2013-06-18 11:55:00,
2013-06-18 08:00:00,60.2,55.0,29.99,NE,53,4.0,-999.0,84,-99.99,,,0.00,ADS-WS1 bash script,2013-06-18 12:00:00,
2013-06-18 08:10:00,60.5,54.0,29.99,NE,36,0.0,-999.0,83,-99.99,,,0.00,ADS-WS1 bash script,2013-06-18 12:10:00,
2013-06-18 08:15:00,60.5,54.0,29.99,ENE,57,4.0,-999.0,82,-99.99,,,0.00,ADS-WS1 bash script,2013-06-18 12:15:00,
2013-06-18 08:20:00,60.5,54.0,29.99,ENE,76,2.0,-999.0,81,-99.99,,,0.00,ADS-WS1 bash script,2013-06-18 12:20:00,
2013-06-18 08:25:00,60.7,55.0,29.99,North,0,5.0,-999.0,81,-99.99,,,0.00,ADS-WS1 bash script,2013-06-18 12:25:00,
2013-06-18 08:30:00,60.7,55.0,29.99,NE,35,1.0,-999.0,81,-99.99,,,0.00,ADS-WS1 bash script,2013-06-18 12:30:00,
2013-06-18 08:35:00,61.2,54.0,29.99,NE,43,1.0,-999.0,80,-99.99,,,0.00,ADS-WS1 bash script,2013-06-18 12:35:00,
2013-06-18 08:40:00,61.6,55.0,30.00,NE,43,2.0,-999.0,79,-99.99,,,0.00,ADS-WS1 bash script,2013-06-18 12:40:00,
2013-06-18 08:50:00,62.1,55.0,29.99,NNE,26,5.0,-999.0,78,-99.99,,,0.00,ADS-WS1 bash script,2013-06-18 12:50:00,
2013-06-18 09:00:00,63.0,55.0,30.00,ENE,66,1.0,-999.0,77,-99.99,,,0.00,ADS-WS1 bash script,2013-06-18 13:00:00,
2013-06-18 09:05:00,63.2,54.0,30.00,ESE,111,2.0,-999.0,75,-99.99,,,0.00,ADS-WS1 bash script,2013-06-18 13:05:00,
2013-06-18 09:10:00,63.9,55.0,30.00,NE,43,1.0,-999.0,75,-99.99,,,0.00,ADS-WS1 bash script,2013-06-18 13:10:00,
2013-06-18 09:15:00,64.3,54.0,30.00,SE,134,3.0,-999.0,72,-99.99,,,0.00,ADS-WS1 bash script,2013-06-18 13:15:00,
2013-06-18 09:20:00,64.3,54.0,30.00,NNE,29,5.0,-999.0,70,-99.99,,,0.00,ADS-WS1 bash script,2013-06-18 13:20:00,
2013-06-18 09:30:00,64.8,55.0,30.01,ENE,66,4.0,-999.0,70,-99.99,,,0.00,ADS-WS1 bash script,2013-06-18 13:30:00,
2013-06-18 09:35:00,65.4,55.0,30.01,NE,43,4.0,-999.0,70,-99.99,,,0.00,ADS-WS1 bash script,2013-06-18 13:35:00,
2013-06-18 09:40:00,66.3,55.0,30.01,SSE,166,3.0,-999.0,69,-99.99,,,0.00,ADS-WS1 bash script,2013-06-18 13:40:00,
2013-06-18 09:45:00,66.8,56.0,30.01,NE,43,3.0,-999.0,68,-99.99,,,0.00,ADS-WS1 bash script,2013-06-18 13:45:00,
2013-06-18 09:50:00,67.2,56.0,30.01,NE,50,5.0,-999.0,68,-99.99,,,0.00,ADS-WS1 bash script,2013-06-18 13:50:00,
2013-06-18 09:55:00,67.9,56.0,30.00,North,0,1.0,-999.0,66,-99.99,,,0.00,ADS-WS1 bash script,2013-06-18 13:55:00,
2013-06-18 10:00:00,67.5,56.0,30.01,ENE,66,3.0,-999.0,66,-99.99,,,0.00,ADS-WS1 bash script,2013-06-18 14:00:00,
2013-06-18 10:05:00,67.9,56.0,30.01,NE,55,4.0,-999.0,65,-99.99,,,0.00,ADS-WS1 bash script,2013-06-18 14:05:00,
2013-06-18 10:10:00,68.1,56.0,30.00,NE,39,4.0,-999.0,64,-99.99,,,0.00,ADS-WS1 bash script,2013-06-18 14:10:00,
2013-06-18 10:15:00,68.1,56.0,30.00,NE,55,2.0,-999.0,64,-99.99,,,0.00,ADS-WS1 bash script,2013-06-18 14:15:00,
2013-06-18 10:20:00,68.4,55.0,30.01,ESE,104,7.0,-999.0,63,-99.99,,,0.00,ADS-WS1 bash script,2013-06-18 14:20:00,
2013-06-18 10:30:00,69.9,56.0,30.01,NE,43,3.0,-999.0,61,-99.99,,,0.00,ADS-WS1 bash script,2013-06-18 14:30:00,
2013-06-18 10:35:00,69.9,56.0,30.01,North,0,2.0,-999.0,61,-99.99,,,0.00,ADS-WS1 bash script,2013-06-18 14:35:00,
2013-06-18 10:40:00,68.4,55.0,30.01,North,0,2.0,-999.0,62,-99.99,,,0.00,ADS-WS1 bash script,2013-06-18 14:40:00,
2013-06-18 10:45:00,68.4,55.0,30.01,NE,38,4.0,-999.0,63,-99.99,,,0.00,ADS-WS1 bash script,2013-06-18 14:45:00,
2013-06-18 10:50:00,69.7,57.0,30.01,ENE,71,2.0,-999.0,63,-99.99,,,0.00,ADS-WS1 bash script,2013-06-18 14:50:00,
2013-06-18 11:00:00,70.4,56.0,30.01,South,179,1.0,-999.0,61,-99.99,,,0.00,ADS-WS1 bash script,2013-06-18 15:00:00,
2013-06-18 11:10:00,70.6,57.0,30.01,East,100,6.0,-999.0,60,-99.99,,,0.00,ADS-WS1 bash script,2013-06-18 15:10:00,
2013-06-18 11:15:00,71.1,57.0,30.01,ENE,66,3.0,-999.0,61,-99.99,,,0.00,ADS-WS1 bash script,2013-06-18 15:15:00,
2013-06-18 11:20:00,70.8,56.0,30.01,NE,38,6.0,-999.0,58,-99.99,,,0.00,ADS-WS1 bash script,2013-06-18 15:20:00,
2013-06-18 11:30:00,70.6,56.0,30.01,South,179,2.0,-999.0,58,-99.99,,,1.00,ADS-WS1 bash script,2013-06-18 15:30:00,
2013-06-18 11:40:00,71.5,58.0,30.01,East,88,3.0,-999.0,60,-99.99,,,1.00,ADS-WS1 bash script,2013-06-18 15:40:00,
2013-06-18 11:45:00,72.0,58.0,30.00,NE,43,2.0,-999.0,59,-99.99,,,1.00,ADS-WS1 bash script,2013-06-18 15:45:00,
2013-06-18 11:50:00,71.1,57.0,30.01,ENE,57,4.0,-999.0,60,-99.99,,,1.00,ADS-WS1 bash script,2013-06-18 15:50:00,
2013-06-18 11:55:00,71.7,58.0,30.01,ESE,107,5.0,-999.0,59,-99.99,,,1.00,ADS-WS1 bash script,2013-06-18 15:55:00,
2013-06-18 12:00:00,72.0,58.0,30.01,WNW,299,4.0,-999.0,59,-99.99,,,1.00,ADS-WS1 bash script,2013-06-18 16:00:00,
2013-06-18 12:05:00,72.6,58.0,30.01,NW,324,3.0,-999.0,58,-99.99,,,1.00,ADS-WS1 bash script,2013-06-18 16:05:00,
2013-06-18 12:10:00,72.9,58.0,30.01,East,88,5.0,-999.0,57,-99.99,,,1.00,ADS-WS1 bash script,2013-06-18 16:10:00,
2013-06-18 12:15:00,72.9,59.0,30.01,East,88,4.0,-999.0,60,-99.99,,,1.00,ADS-WS1 bash script,2013-06-18 16:15:00,
2013-06-18 12:20:00,73.5,59.0,30.01,NNE,29,6.0,-999.0,58,-99.99,,,1.00,ADS-WS1 bash script,2013-06-18 16:20:00,
2013-06-18 12:25:00,72.9,59.0,30.01,NNE,32,2.0,-999.0,61,-99.99,,,1.00,ADS-WS1 bash script,2013-06-18 16:25:00,
2013-06-18 12:30:00,71.5,57.0,30.01,NE,53,2.0,-999.0,57,-99.99,,,1.00,ADS-WS1 bash script,2013-06-18 16:30:00,
2013-06-18 12:35:00,71.5,58.0,30.01,NE,43,5.0,-999.0,61,-99.99,,,1.00,ADS-WS1 bash script,2013-06-18 16:35:00,
2013-06-18 12:40:00,72.9,59.0,30.01,East,88,2.0,-999.0,61,-99.99,,,1.00,ADS-WS1 bash script,2013-06-18 16:40:00,
2013-06-18 12:45:00,73.8,59.0,30.00,NNE,32,3.0,-999.0,56,-99.99,,,1.00,ADS-WS1 bash script,2013-06-18 16:45:00,
2013-06-18 12:50:00,73.6,59.0,30.00,NNE,26,1.0,-999.0,56,-99.99,,,1.00,ADS-WS1 bash script,2013-06-18 16:50:00,
2013-06-18 13:00:00,72.6,58.0,30.00,NE,43,3.0,-999.0,58,-99.99,,,1.00,ADS-WS1 bash script,2013-06-18 17:00:00,
2013-06-18 13:10:00,72.9,60.0,30.00,East,95,2.0,-999.0,62,-99.99,,,1.00,ADS-WS1 bash script,2013-06-18 17:10:00,
2013-06-18 13:15:00,72.4,57.0,30.01,NE,43,3.0,-999.0,58,-99.99,,,1.00,ADS-WS1 bash script,2013-06-18 17:15:00,
2013-06-18 13:20:00,72.6,58.0,30.00,NNW,335,2.0,-999.0,58,-99.99,,,1.00,ADS-WS1 bash script,2013-06-18 17:20:00,
2013-06-18 13:25:00,72.7,58.0,30.00,North,350,3.0,-999.0,57,-99.99,,,1.00,ADS-WS1 bash script,2013-06-18 17:25:00,
2013-06-18 13:30:00,72.4,57.0,30.01,NW,313,0.0,-999.0,58,-99.99,,,1.00,ADS-WS1 bash script,2013-06-18 17:30:00,
2013-06-18 13:35:00,72.4,57.0,30.01,East,88,1.0,-999.0,58,-99.99,,,1.00,ADS-WS1 bash script,2013-06-18 17:35:00,
2013-06-18 13:40:00,72.0,58.0,30.01,North,9,4.0,-999.0,59,-99.99,,,1.00,ADS-WS1 bash script,2013-06-18 17:40:00,
2013-06-18 13:45:00,72.7,58.0,30.01,ENE,66,4.0,-999.0,57,-99.99,,,1.00,ADS-WS1 bash script,2013-06-18 17:45:00,
2013-06-18 13:50:00,72.9,58.0,30.01,NNE,26,1.0,-999.0,57,-99.99,,,1.00,ADS-WS1 bash script,2013-06-18 17:50:00,
2013-06-18 13:55:00,72.9,58.0,30.01,NE,46,4.0,-999.0,58,-99.99,,,1.00,ADS-WS1 bash script,2013-06-18 17:55:00,
2013-06-18 14:00:00,72.9,58.0,30.01,NNE,21,6.0,-999.0,56,-99.99,,,1.00,ADS-WS1 bash script,2013-06-18 18:00:00,
2013-06-18 14:05:00,72.7,58.0,30.01,ENE,66,0.0,-999.0,57,-99.99,,,1.00,ADS-WS1 bash script,2013-06-18 18:05:00,
2013-06-18 14:15:00,73.3,58.0,30.01,ESE,118,2.0,-999.0,57,-99.99,,,1.00,ADS-WS1 bash script,2013-06-18 18:15:00,
2013-06-18 14:20:00,73.3,58.0,30.01,East,83,6.0,-999.0,56,-99.99,,,2.00,ADS-WS1 bash script,2013-06-18 18:20:00,
2013-06-18 14:25:00,73.6,59.0,30.00,NNE,26,6.0,-999.0,56,-99.99,,,2.00,ADS-WS1 bash script,2013-06-18 18:25:00,
2013-06-18 14:30:00,72.4,56.0,30.00,NE,43,6.0,-999.0,55,-99.99,,,2.00,ADS-WS1 bash script,2013-06-18 18:30:00,
2013-06-18 14:40:00,71.8,57.0,30.00,NNW,335,5.0,-999.0,56,-99.99,,,2.00,ADS-WS1 bash script,2013-06-18 18:40:00,
2013-06-18 14:45:00,72.2,56.0,30.01,ENE,69,5.0,-999.0,55,-99.99,,,2.00,ADS-WS1 bash script,2013-06-18 18:45:00,
2013-06-18 14:50:00,72.0,57.0,30.01,NE,43,1.0,-999.0,57,-99.99,,,2.00,ADS-WS1 bash script,2013-06-18 18:50:00,
2013-06-18 14:55:00,72.0,57.0,30.01,SE,145,0.0,-999.0,57,-99.99,,,2.00,ADS-WS1 bash script,2013-06-18 18:55:00,
2013-06-18 15:00:00,72.4,56.0,30.01,NNE,21,3.0,-999.0,55,-99.99,,,2.00,ADS-WS1 bash script,2013-06-18 19:00:00,
2013-06-18 15:10:00,72.0,56.0,30.01,NNE,16,2.0,-999.0,55,-99.99,,,2.00,ADS-WS1 bash script,2013-06-18 19:10:00,
2013-06-18 15:15:00,71.8,56.0,30.01,East,79,2.0,-999.0,55,-99.99,,,2.00,ADS-WS1 bash script,2013-06-18 19:15:00,
2013-06-18 15:20:00,71.7,56.0,30.01,NNE,21,5.0,-999.0,55,-99.99,,,2.00,ADS-WS1 bash script,2013-06-18 19:20:00,
2013-06-18 15:25:00,71.8,56.0,30.01,East,88,1.0,-999.0,55,-99.99,,,2.00,ADS-WS1 bash script,2013-06-18 19:25:00,
2013-06-18 15:30:00,71.7,57.0,30.01,NE,43,2.0,-999.0,56,-99.99,,,2.00,ADS-WS1 bash script,2013-06-18 19:30:00,
2013-06-18 15:35:00,71.7,56.0,30.01,NE,43,5.0,-999.0,54,-99.99,,,2.00,ADS-WS1 bash script,2013-06-18 19:35:00,
2013-06-18 15:40:00,72.2,56.0,30.01,NNE,32,2.0,-999.0,53,-99.99,,,2.00,ADS-WS1 bash script,2013-06-18 19:40:00,
2013-06-18 15:45:00,72.2,56.0,30.02,NNE,23,4.0,-999.0,54,-99.99,,,2.00,ADS-WS1 bash script,2013-06-18 19:45:00,
2013-06-18 15:50:00,72.4,54.0,30.01,NE,43,6.0,-999.0,50,-99.99,,,2.00,ADS-WS1 bash script,2013-06-18 19:50:00,
2013-06-18 15:55:00,72.2,54.0,30.01,NE,49,7.0,-999.0,49,-99.99,,,2.00,ADS-WS1 bash script,2013-06-18 19:55:00,
2013-06-18 16:00:00,72.9,57.0,30.01,NE,49,2.0,-999.0,54,-99.99,,,2.00,ADS-WS1 bash script,2013-06-18 20:00:00,
2013-06-18 16:05:00,72.7,55.0,30.01,NW,316,3.0,-999.0,48,-99.99,,,2.00,ADS-WS1 bash script,2013-06-18 20:05:00,
2013-06-18 16:10:00,72.9,55.0,30.01,East,81,2.0,-999.0,50,-99.99,,,2.00,ADS-WS1 bash script,2013-06-18 20:10:00,
2013-06-18 16:15:00,73.8,56.0,30.01,NNE,31,3.0,-999.0,48,-99.99,,,2.00,ADS-WS1 bash script,2013-06-18 20:15:00,
2013-06-18 16:20:00,74.5,56.0,30.01,North,4,2.0,-999.0,49,-99.99,,,2.00,ADS-WS1 bash script,2013-06-18 20:20:00,
2013-06-18 16:25:00,73.8,56.0,30.01,NNW,347,2.0,-999.0,48,-99.99,,,2.00,ADS-WS1 bash script,2013-06-18 20:25:00,
2013-06-18 16:30:00,74.7,56.0,30.01,NW,313,2.0,-999.0,47,-99.99,,,2.00,ADS-WS1 bash script,2013-06-18 20:30:00,
2013-06-18 16:35:00,74.7,55.0,30.00,NNE,19,7.0,-999.0,44,-99.99,,,2.00,ADS-WS1 bash script,2013-06-18 20:35:00,
2013-06-18 16:40:00,74.0,55.0,30.01,ENE,70,6.0,-999.0,45,-99.99,,,2.00,ADS-WS1 bash script,2013-06-18 20:40:00,
2013-06-18 16:50:00,73.6,54.0,30.01,NE,38,3.0,-999.0,43,-99.99,,,2.00,ADS-WS1 bash script,2013-06-18 20:50:00,
2013-06-18 17:00:00,74.0,55.0,30.01,NE,43,2.0,-999.0,46,-99.99,,,2.00,ADS-WS1 bash script,2013-06-18 21:00:00,
2013-06-18 17:05:00,74.4,55.0,30.01,North,0,2.0,-999.0,45,-99.99,,,2.00,ADS-WS1 bash script,2013-06-18 21:05:00,
2013-06-18 17:10:00,73.1,53.0,30.00,NE,43,3.0,-999.0,43,-99.99,,,2.00,ADS-WS1 bash script,2013-06-18 21:10:00,
2013-06-18 17:15:00,73.8,55.0,30.01,East,84,4.0,-999.0,46,-99.99,,,2.00,ADS-WS1 bash script,2013-06-18 21:15:00,
2013-06-18 17:20:00,73.8,54.0,30.01,East,87,5.0,-999.0,43,-99.99,,,2.00,ADS-WS1 bash script,2013-06-18 21:20:00,
2013-06-18 17:25:00,73.8,54.0,30.01,East,100,3.0,-999.0,44,-99.99,,,2.00,ADS-WS1 bash script,2013-06-18 21:25:00,
2013-06-18 17:35:00,73.8,55.0,30.01,NW,313,1.0,-999.0,45,-99.99,,,2.00,ADS-WS1 bash script,2013-06-18 21:35:00,
2013-06-18 17:40:00,73.8,55.0,30.01,NNE,32,1.0,-999.0,45,-99.99,,,2.00,ADS-WS1 bash script,2013-06-18 21:40:00,
2013-06-18 17:50:00,73.3,53.0,30.01,East,88,4.0,-999.0,42,-99.99,,,2.00,ADS-WS1 bash script,2013-06-18 21:50:00,
2013-06-18 17:55:00,73.6,54.0,30.01,East,80,3.0,-999.0,44,-99.99,,,2.00,ADS-WS1 bash script,2013-06-18 21:55:00,
2013-06-18 18:05:00,72.9,53.0,30.01,ESE,111,6.0,-999.0,43,-99.99,,,2.00,ADS-WS1 bash script,2013-06-18 22:05:00,
2013-06-18 18:10:00,72.4,52.0,30.01,NNE,32,0.0,-999.0,44,-99.99,,,2.00,ADS-WS1 bash script,2013-06-18 22:10:00,
2013-06-18 18:15:00,71.8,52.0,30.01,NE,43,4.0,-999.0,42,-99.99,,,2.00,ADS-WS1 bash script,2013-06-18 22:15:00,
2013-06-18 18:20:00,71.5,52.0,30.01,NE,43,6.0,-999.0,42,-99.99,,,2.00,ADS-WS1 bash script,2013-06-18 22:20:00,
2013-06-18 18:25:00,71.5,52.0,30.01,NNE,21,1.0,-999.0,43,-99.99,,,2.00,ADS-WS1 bash script,2013-06-18 22:25:00,
2013-06-18 18:30:00,70.9,51.0,30.01,North,9,3.0,-999.0,42,-99.99,,,2.00,ADS-WS1 bash script,2013-06-18 22:30:00,
2013-06-18 18:40:00,70.8,51.0,30.02,NE,43,3.0,-999.0,42,-99.99,,,2.00,ADS-WS1 bash script,2013-06-18 22:40:00,
2013-06-18 18:50:00,70.4,50.0,30.01,North,5,3.0,-999.0,44,-99.99,,,2.00,ADS-WS1 bash script,2013-06-18 22:50:00,
2013-06-18 18:55:00,70.2,50.0,30.02,NNE,32,7.0,-999.0,43,-99.99,,,2.00,ADS-WS1 bash script,2013-06-18 22:55:00,
2013-06-18 19:00:00,70.0,50.0,30.02,ESE,121,3.0,-999.0,44,-99.99,,,2.00,ADS-WS1 bash script,2013-06-18 23:00:00,
2013-06-18 19:05:00,70.0,50.0,30.02,WNW,302,1.0,-999.0,44,-99.99,,,2.00,ADS-WS1 bash script,2013-06-18 23:05:00,
2013-06-18 19:10:00,69.9,51.0,30.02,NE,49,2.0,-999.0,45,-99.99,,,2.00,ADS-WS1 bash script,2013-06-18 23:10:00,
2013-06-18 19:15:00,69.7,51.0,30.03,NNE,26,7.0,-999.0,45,-99.99,,,2.00,ADS-WS1 bash script,2013-06-18 23:15:00,
2013-06-18 19:20:00,69.5,50.0,30.03,NE,38,4.0,-999.0,44,-99.99,,,2.00,ADS-WS1 bash script,2013-06-18 23:20:00,
2013-06-18 19:30:00,69.0,50.0,30.04,NNE,21,3.0,-999.0,45,-99.99,,,2.00,ADS-WS1 bash script,2013-06-18 23:30:00,
2013-06-18 19:40:00,68.6,51.0,30.03,North,0,2.0,-999.0,48,-99.99,,,2.00,ADS-WS1 bash script,2013-06-18 23:40:00,
2013-06-18 19:45:00,68.6,51.0,30.03,NE,38,5.0,-999.0,48,-99.99,,,2.00,ADS-WS1 bash script,2013-06-18 23:45:00,
2013-06-18 19:50:00,68.2,49.0,30.03,NW,323,1.0,-999.0,47,-99.99,,,2.00,ADS-WS1 bash script,2013-06-18 23:50:00,
2013-06-18 19:55:00,67.9,49.0,30.04,NNW,330,4.0,-999.0,46,-99.99,,,2.00,ADS-WS1 bash script,2013-06-18 23:55:00,
2013-06-18 20:00:00,67.9,49.0,30.04,East,84,3.0,-999.0,47,-99.99,,,2.00,ADS-WS1 bash script,2013-06-19 00:00:00,
2013-06-18 20:05:00,67.5,49.0,30.04,ESE,119,2.0,-999.0,47,-99.99,,,2.00,ADS-WS1 bash script,2013-06-19 00:05:00,
2013-06-18 20:15:00,67.0,48.0,30.03,NE,43,7.0,-999.0,47,-99.99,,,2.00,ADS-WS1 bash script,2013-06-19 00:15:00,
2013-06-18 20:20:00,66.8,49.0,30.04,North,350,3.0,-999.0,49,-99.99,,,2.00,ADS-WS1 bash script,2013-06-19 00:20:00,
2013-06-18 20:25:00,66.5,48.0,30.04,NNE,32,7.0,-999.0,49,-99.99,,,2.00,ADS-WS1 bash script,2013-06-19 00:25:00,
2013-06-18 20:30:00,66.3,48.0,30.04,NE,43,5.0,-999.0,49,-99.99,,,2.00,ADS-WS1 bash script,2013-06-19 00:30:00,
2013-06-18 20:35:00,66.1,48.0,30.04,NNE,26,5.0,-999.0,49,-99.99,,,2.00,ADS-WS1 bash script,2013-06-19 00:35:00,
2013-06-18 20:40:00,65.9,48.0,30.04,ENE,69,1.0,-999.0,49,-99.99,,,2.00,ADS-WS1 bash script,2013-06-19 00:40:00,
2013-06-18 20:50:00,65.4,47.0,30.05,NE,39,4.0,-999.0,50,-99.99,,,2.00,ADS-WS1 bash script,2013-06-19 00:50:00,
2013-06-18 20:55:00,65.2,48.0,30.04,NNE,16,2.0,-999.0,51,-99.99,,,2.00,ADS-WS1 bash script,2013-06-19 00:55:00,
2013-06-18 21:00:00,64.8,48.0,30.05,North,351,1.0,-999.0,52,-99.99,,,2.00,ADS-WS1 bash script,2013-06-19 01:00:00,
2013-06-18 21:05:00,64.7,48.0,30.05,ENE,57,1.0,-999.0,52,-99.99,,,2.00,ADS-WS1 bash script,2013-06-19 01:05:00,
2013-06-18 21:10:00,64.1,47.0,30.05,NNE,12,2.0,-999.0,52,-99.99,,,2.00,ADS-WS1 bash script,2013-06-19 01:10:00,
2013-06-18 21:15:00,64.1,48.0,30.05,NE,49,2.0,-999.0,53,-99.99,,,2.00,ADS-WS1 bash script,2013-06-19 01:15:00,
2013-06-18 21:20:00,63.8,48.0,30.06,NNE,14,3.0,-999.0,54,-99.99,,,2.00,ADS-WS1 bash script,2013-06-19 01:20:00,
2013-06-18 21:25:00,63.4,47.0,30.06,NE,38,6.0,-999.0,54,-99.99,,,2.00,ADS-WS1 bash script,2013-06-19 01:25:00,
2013-06-18 21:30:00,63.2,47.0,30.06,NNE,29,2.0,-999.0,54,-99.99,,,2.00,ADS-WS1 bash script,2013-06-19 01:30:00,
2013-06-18 21:35:00,62.9,47.0,30.06,NNE,26,3.0,-999.0,54,-99.99,,,2.00,ADS-WS1 bash script,2013-06-19 01:35:00,
2013-06-18 21:40:00,62.7,47.0,30.06,NE,40,2.0,-999.0,54,-99.99,,,2.00,ADS-WS1 bash script,2013-06-19 01:40:00,
2013-06-18 21:45:00,62.5,46.0,30.07,NE,38,2.0,-999.0,54,-99.99,,,2.00,ADS-WS1 bash script,2013-06-19 01:45:00,
2013-06-18 21:50:00,62.1,46.0,30.07,North,7,1.0,-999.0,53,-99.99,,,2.00,ADS-WS1 bash script,2013-06-19 01:50:00,
2013-06-18 21:55:00,62.0,46.0,30.07,NNE,21,2.0,-999.0,53,-99.99,,,2.00,ADS-WS1 bash script,2013-06-19 01:55:00,
2013-06-18 22:00:00,61.8,46.0,30.07,North,2,3.0,-999.0,53,-99.99,,,2.00,ADS-WS1 bash script,2013-06-19 02:00:00,
2013-06-18 22:05:00,61.6,45.0,30.07,North,0,0.0,-999.0,52,-99.99,,,2.00,ADS-WS1 bash script,2013-06-19 02:05:00,
2013-06-18 22:10:00,61.2,45.0,30.07,NNE,33,1.0,-999.0,53,-99.99,,,2.00,ADS-WS1 bash script,2013-06-19 02:10:00,
2013-06-18 22:15:00,61.1,45.0,30.08,North,350,1.0,-999.0,53,-99.99,,,2.00,ADS-WS1 bash script,2013-06-19 02:15:00,
2013-06-18 22:20:00,60.7,45.0,30.08,NE,35,0.0,-999.0,54,-99.99,,,2.00,ADS-WS1 bash script,2013-06-19 02:20:00,
2013-06-18 22:25:00,60.5,44.0,30.08,NNW,340,2.0,-999.0,53,-99.99,,,2.00,ADS-WS1 bash script,2013-06-19 02:25:00,
2013-06-18 22:30:00,60.5,44.0,30.08,NNW,341,2.0,-999.0,53,-99.99,,,2.00,ADS-WS1 bash script,2013-06-19 02:30:00,
2013-06-18 22:35:00,60.2,44.0,30.09,East,80,2.0,-999.0,53,-99.99,,,2.00,ADS-WS1 bash script,2013-06-19 02:35:00,
2013-06-18 22:40:00,60.2,44.0,30.08,SE,134,3.0,-999.0,53,-99.99,,,2.00,ADS-WS1 bash script,2013-06-19 02:40:00,
2013-06-18 22:45:00,60.2,44.0,30.08,ENE,70,2.0,-999.0,53,-99.99,,,2.00,ADS-WS1 bash script,2013-06-19 02:45:00,
2013-06-18 22:50:00,60.0,43.0,30.09,NE,46,3.0,-999.0,52,-99.99,,,2.00,ADS-WS1 bash script,2013-06-19 02:50:00,
2013-06-18 22:55:00,59.8,43.0,30.09,ESE,118,0.0,-999.0,52,-99.99,,,2.00,ADS-WS1 bash script,2013-06-19 02:55:00,
2013-06-18 23:00:00,59.8,43.0,30.09,East,91,3.0,-999.0,52,-99.99,,,2.00,ADS-WS1 bash script,2013-06-19 03:00:00,
2013-06-18 23:05:00,59.4,43.0,30.09,ENE,77,3.0,-999.0,53,-99.99,,,2.00,ADS-WS1 bash script,2013-06-19 03:05:00,
2013-06-18 23:10:00,59.3,43.0,30.09,North,0,0.0,-999.0,53,-99.99,,,2.00,ADS-WS1 bash script,2013-06-19 03:10:00,
2013-06-18 23:15:00,58.7,43.0,30.09,North,0,1.0,-999.0,55,-99.99,,,2.00,ADS-WS1 bash script,2013-06-19 03:15:00,
2013-06-18 23:20:00,58.5,42.0,30.09,ENE,69,0.0,-999.0,55,-99.99,,,2.00,ADS-WS1 bash script,2013-06-19 03:20:00,
2013-06-18 23:25:00,58.2,42.0,30.09,ENE,67,0.0,-999.0,55,-99.99,,,2.00,ADS-WS1 bash script,2013-06-19 03:25:00,
2013-06-18 23:30:00,58.2,42.0,30.08,East,100,1.0,-999.0,55,-99.99,,,2.00,ADS-WS1 bash script,2013-06-19 03:30:00,
2013-06-18 23:40:00,58.0,42.0,30.09,NE,56,3.0,-999.0,55,-99.99,,,2.00,ADS-WS1 bash script,2013-06-19 03:40:00,
2013-06-18 23:50:00,57.8,42.0,30.09,North,5,0.0,-999.0,55,-99.99,,,2.00,ADS-WS1 bash script,2013-06-19 03:50:00,
2013-06-18 23:55:00,57.5,43.0,30.09,NE,43,1.0,-999.0,56,-99.99,,,2.00,ADS-WS1 bash script,2013-06-19 03:55:00,